Location: Newark
(35.6799°N, 139.7636°E)
Time: 22:58:18
(UTC+00:00)

Explorer 7 - Pass Details

Date: 15 December 2019
Orbit: 485 x 679 km, 50.3° (Epoch: 22 January)

Event Time Altitude Azimuth Distance (km) Brightness Sun altitude
Rises 08:56:29 0° 313° (NW) 3,031 11.0 -17.3°
Reaches altitude 10° 08:59:34 10° 332° (NNW) 2,118 9.9 -17.9°
Maximum altitude 09:02:55 18° 15° (NNE) 1,640 8.9 -18.5°
Enters shadow 09:03:05 18° 18° (NNE) 1,640 8.9 -18.6°
Drops below altitude 10° 09:06:15 10° 58° (ENE) 2,094 - -19.2°
Sets 09:09:16 0° 78° (ENE) 2,982 - -19.8°
